Regional Weather Roundup
Issued by NWS Pendleton, OR

Home | Current Version | Previous Version | Text Only | Print | Product List | Glossary On
Versions: 1 2 3 4 5 6 7 8 9 10 11 12 13 14 15 16 17 18 19 20 21 22 23 24 25 26 27 28 29 30 31 32 33 34 35 36 37 38 39 40 41 42 43 44 45 46 47 48 49 50
000
ASUS46 KPDT 220225
RWRPDT
PENDLETON REGIONAL WEATHER ROUNDUP
NATIONAL WEATHER SERVICE PENDLETON OREGON
600 PM PST SUN DEC 21 2014

NOTE: FAIR INDICATES FEW OR NO CLOUDS BELOW 12,000 FEET WITH NO
SIGNIFICANT WEATHER AND/OR OBSTRUCTIONS TO VISIBILITY.

# INDICATES UNOFFICIAL STATION AND DATA

WAZ520-220310-
EAST SLOPES OF WASHINGTON CASCADES

CITY            SKY/WX      TMP DP  RH  WIND    PRES   REMARKS
#BULLFROG 2SW   N/A         41  40  96  N2      27.61R
#BUMPING DAM    N/A         34  N/A N/A SW7     N/A
#CLE ELUM HS    N/A         41  39  93  W2      29.97R
#CLE ELUM 2NW   N/A         41  38  89  W3      N/A
#CLE ELUM LAKE  N/A         39  37  92  NW9     30.02R
#CLIFFDEL 2NW   N/A         37  36  96  CALM    N/A
#GLENWOOD       N/A         46  41  83  S3      30.03S
#MANASTASH CYN  N/A         37  34  89  CALM    29.97R
#NELSON         N/A         40  39  96  CALM    30.08R
#NILE           N/A         38  37  96  W1      29.31R
#SNOWDEN        N/A         42  38  86  W2      N/A
#TEANAWAY 4NE   N/A         41  39  93  CALM    N/A
#TROUT LAKE HS  N/A         44  43  96  N2      N/A
#TROUT LAKE 1NE N/A         41  40  96  CALM    30.10R
$$

WAZ521-220310-
SIMCOE HIGHLANDS

CITY            SKY/WX      TMP DP  RH  WIND    PRES   REMARKS
#BICKLETON HS   N/A         41  34  76  SW6     34.25S
#CENTERVILLE 1SWN/A         47  40  76  W22     30.01R WCI 39
#GOLDENDALE     N/A         46  42  86  NW3     N/A
#GOLDENDALE 1NE N/A         44  39  82  CALM    N/A
#GOLDENDALE 1S  N/A         45  42  89  CALM    30.02R
#GOLDENDALE 5WNWN/A         47  41  79  W12     30.02S WCI 42
#GOODNOE HILLS  N/A         49  42  77  W13     N/A    WCI 44
#LYLE 6NE       N/A         46  45  96  SW7     30.05R
$$

WAZ026-220310-
KITTITAS VALLEY

CITY            SKY/WX      TMP DP  RH  WIND    PRES   REMARKS
ELLENSBURG AP   MOCLDY      44  36  73  NW14    29.99R WCI 37
#ELLENSBURG CWU N/A         44  37  76  N9      29.96R
#ELLENSBURG 3NE N/A         41  37  86  N1      30.00R
#ELLENSBURG     N/A         46  41  83  NW3     N/A
#ELLENSBURG 1E  N/A         44  35  70  NW3     N/A
#KITTITAS 4N    N/A         41  36  82  W6      30.04R
#KITTITAS 3S    N/A         43  38  82  W6      29.98S
#THORP 6N       N/A         41  38  89  NW20G31 30.03S WCI 32
$$

WAZ027-220310-
YAKIMA VALLEY

CITY            SKY/WX      TMP DP  RH  WIND    PRES   REMARKS
YAKIMA-VAGABOND PTCLDY      45  36  70  W6      29.99F
#DONALD 2NE     N/A         47  35  63  CALM    28.87R
#GRANDVIEW      N/A         48  38  68  CALM    30.01R
#MABTON         N/A         51  41  68  W2      30.01R
#MOXEE 2E       N/A         40  33  76  CALM    29.94F
#NACHES 2SW     N/A         45  40  82  NW7     29.90S
#OUTLOOK DOT    N/A         N/A N/A N/A W12     N/A
#SELAH 8E       N/A         41  35  79  N6      N/A
#TERRACE HTS    N/A         44  38  79  CALM    29.96F
#WAPATO 4NE     N/A         47  35  63  CALM    28.87R
#WEST VALLEY    N/A         48  38  68  NW3     29.96F
#W YAKIMA       N/A         47  38  71  W2      30.03R
#WHITE SWAN 5E  N/A         48  39  71  SE3     30.01R
#WILEY CITY 3W  N/A         41  20  43  CALM    29.92S
$$

WAZ028-220310-
LOWER COLUMBIA BASIN...WASHINGTON

CITY            SKY/WX      TMP DP  RH  WIND    PRES   REMARKS
PASCO           PTCLDY      50  43  77  SW15    30.02R
PROSSER AWOS    N/A         46  39  76  W2      30.03
RICHLAND AWOS   PTCLDY      50  39  66  S6      30.02
#BASIN CITY 5SW N/A         50  39  66  W5      29.98S
#BENTON CITY    N/A         50  40  68  W3      29.89R
#CONNELL 5N     N/A         43  38  82  CALM    29.98R
#CONNELL 5NW    N/A         43  38  82  W3      29.95R
#ELTOPIA        N/A         47  41  79  S8      29.97R
#ELTOPIA 6NW    N/A         48  39  71  SW7     28.94S
#KAHLOTUS       N/A         47  39  74  W28G36  29.97R WCI 38
#KENNEWICK      N/A         41  40  96  N2      27.61R
#KENNEWICK 3S   N/A         50  44  80  SW12    30.00F
#PASCO-BROADMOORN/A         50  41  71  W5      29.91R
#PATERSON       N/A         51  44  77  SW3     30.03R
#PROSSER        N/A         52  37  56  NW1     30.00S
#SAGEMOOR 2W    N/A         48  40  74  E2      29.85R
#TOUCHET 2S     N/A         51  43  74  SW15    30.00R
#WEST PASCO     N/A         51  42  71  N3      30.03R
$$

WAZ029-220310-
FOOTHILLS OF THE BLUES...WASHINGTON

CITY            SKY/WX      TMP DP  RH  WIND    PRES   REMARKS
WALLA WALLA AP  CLOUDY      49  41  74  S10     30.03R
#COLLEGE PLACE  N/A         51  39  63  CALM    30.04R
#DAYTON SCHOOL  N/A         48  38  68  S17G26  30.02R WCI 42
#LOWDEN 2SE     N/A         52  44  74  W12     30.00R
#PLEASANT VIEW 1N/A         42  40  93  S10     30.03R
#PRESCOTT       N/A         47  43  86  CALM    30.00R
#SUDBURY        N/A         50  N/A N/A CALM    N/A
#WHITMAN COLLEGEN/A         51  42  71  S8      30.07R
#WAITSBURG 5S   N/A         45  41  86  S14     30.11R WCI 39
#WALLA WALLA 5E N/A         49  43  80  SW15    N/A    WCI 43
#WALLA WALLA U  N/A         52  43  71  CALM    30.03R
#WHITMAN MISSIONN/A         52  44  74  SW15    30.03R
$$

WAZ030-220310-
BLUE MOUNTAINS...WASHINGTON

CITY            SKY/WX      TMP DP  RH  WIND    PRES   REMARKS
#DIXIE 5SE      N/A         42  37  82  SW17G26 29.96R WCI 34
#SKI BLUEWOOD   N/A         35  31  85  N7      30.07R
$$

ORZ009-041-WAZ024-220310-
COLUMBIA RIVER GORGE

CITY            SKY/WX      TMP DP  RH  WIND    PRES   REMARKS
HOOD RIVER AP   LGT RAIN    48  46  93  S6      30.11R
THE DALLES AP   CLOUDY      52  45  77  SE5     30.08R
#ARLINGTON AIRPON/A         51  44  77  W20     29.88F
#ARLINGTON HS   N/A         53  44  71  W12     29.97R
#CELILO DOT     N/A         54  41  61  SW9     N/A
#LYLE           N/A         51  49  93  W6      30.09R
#MARYHILL 2W    N/A         50  47  89  S6      N/A
#MOSIER 1S      N/A         49  45  86  W8      30.09S
#MURDOCK        N/A         53  50  89  NW8     30.08S
#RUFUS DOT      N/A         53  41  64  CALM    N/A

$$

ORZ510-220310-
NORTH CENTRAL OREGON

CITY            SKY/WX      TMP DP  RH  WIND    PRES   REMARKS
#CHENOWITH 1W   N/A         45  45  100 NW30    N/A    WCI 35
#COW CYN RST AREN/A         41  39  93  W7      N/A
#DUFUR 9E       N/A         45  40  82  SW10    30.12R
#GRASS VALLEY   N/A         42  41  96  S3      N/A
#GRASS VALLEY 1SN/A         42  40  93  SW6     30.14R
#KENT DOT       N/A         43  33  67  SW18    N/A    WCI 35
#MAUPIN SCHOOL  N/A         50  41  71  SW5     30.11R
#MORO SCHOOL    N/A         45  43  93  SW7     30.09R
#SHANIKO 4NW    N/A         39  37  92  SW16    30.07R WCI 30
#TYGH VALLEY 2NEN/A         49  42  77  W3      30.08S
#WAPANITIA AIRPON/A         46  40  79  W2      30.11S
#WASCO DOT      N/A         46  40  79  SW3     N/A
#WASCO AIRPORT  N/A         46  40  79  W7      N/A
#WASCO 5NE      N/A         45  41  86  CALM    30.07R
$$

ORZ511-220310-
CENTRAL OREGON

CITY            SKY/WX      TMP DP  RH  WIND    PRES   REMARKS
BEND AIRPORT    PTCLDY      41  41  100 CALM    30.12R
MADRAS AIRPORT  LGT RAIN    45  41  86  SW6     30.13R
PRINEVILLE AP   CLOUDY      43  41  93  S3      30.12R
REDMOND AIRPORT LGT RAIN    43  41  93  CALM    30.11R
#BEND 1SW       N/A         42  42  100 CALM    N/A
#BEND-AWBREY    N/A         43  42  96  CALM    30.10S
#BEND-KIM LN    N/A         42  41  96  CALM    30.08R
#CROOKED RVR RANN/A         44  42  93  W41G60  30.11R WCI 32
#CULVER         N/A         45  40  82  SE2     30.08R
#LAKE BILLY CHINN/A         47  29  49  SW5     30.18S
#POWELL BUTTE 3EN/A         43  40  89  SW3     N/A
#POWELL BUTTE   N/A         42  39  89  NW2     29.74R
#PRINEVILLE 3N  N/A         44  41  89  SW1     30.07R
#WARM SPRINGS   N/A         46  44  93  SW1     30.09R


ORZ509-220310-
EAST SLOPES OF OREGON CASCADES

CITY            SKY/WX      TMP DP  RH  WIND    PRES   REMARKS
#BLUE BOX PASS  N/A         37  -12 11  NW3     N/A
#BLACK BUTTE RNCN/A         42  41  96  CALM    30.11R
#CAMP SHERMAN   N/A         42  41  96  CALM    30.14R
#LA PINE DOT    N/A         43  41  93  CALM    N/A
#LA PINE 4NW    N/A         43  40  89  CALM    30.16R
#LAVA BUTTE DOT N/A         42  40  93  S1      N/A
#MT BACHELOR-MIDN/A         32  31  96  E26G45  N/A    WCI 18
#SISTERS AIRPOR N/A         43  43  100 CALM    30.17S
#SISTERS ODOT   N/A         43  N/A N/A CALM    N/A
#SISTERS 1NW    N/A         43  40  89  SE7     N/A
#SISTERS 3N     N/A         41  40  96  W2      30.16R
#SUNRIVER       N/A         43  42  96  SE1     29.99S
#TUMALO 3W      N/A         41  40  96  E2      29.99R
#WANOGA BUTTE D N/A         36  35  96  W15G26  N/A    WCI 27

$$

ORZ044-220310-
LOWER COLUMBIA BASIN...OREGON

CITY            SKY/WX      TMP DP  RH  WIND    PRES   REMARKS
HERMISTON       CLOUDY      51  41  68  SW16    30.03R
#BOARDMAN 3W    N/A         49  43  80  E3      29.74R
#BOARDMAN 8SW   N/A         51  44  77  SW13    30.03S
#ECHO 8SW       N/A         52  41  66  W8      30.01S
#IONE SCHOOL    N/A         50  36  58  S7      30.05R
#IRRIGON 4NW    N/A         52  45  77  S12     N/A
#UMATILLA SCHOOLN/A         50  46  86  W3      30.05R
#UMATILLA       N/A         53  42  66  SW8     29.99S
$$

ORZ507-220310-
NORTHERN FOOTHILLS OF THE BLUES

CITY            SKY/WX      TMP DP  RH  WIND    PRES   REMARKS
PENDLETON AIRPT CLOUDY      50  38  63  SW18    30.03R
#ADAMS 3WNW     N/A         47  40  76  SW7     30.05R
#ATHENA         N/A         47  41  79  SW3     30.06S
#CAYUSE         N/A         50  42  74  SW10    30.04R
#HELIX SCHOOL   N/A         46  41  83  SW9     30.04R
#HELIX 3N       N/A         45  41  86  SW12    30.01R WCI 39
#HOLDMAN 5SE    N/A         48  42  80  SW5     30.05R
#HOLDMAN 6E     N/A         46  40  79  N16     29.83F WCI 39
#M-F GROVE ELEM N/A         50  39  66  SW7     30.02R
#M-FREEWATER 5SEN/A         50  41  71  SW12    30.04R
#PENDLETON DNTN N/A         52  35  52  SW2     28.85S
#PDT AQUATIC CTRN/A         52  38  59  S5      30.06R
#PENDLETON 5NE  N/A         49  42  77  CALM    30.02R
#PDT SUNRIDGE   N/A         50  42  74  CALM    30.06R
#PENDLETON 7NW  N/A         49  40  71  SW15    N/A    WCI 43
#PILOT ROCK     N/A         49  36  61  S13     30.06S WCI 44
#TUTUILLA       N/A         49  41  74  S6      30.05S
#UMAPINE 2E     N/A         52  43  71  SW10    30.00R
#WESTON SCHOOL  N/A         47  38  71  W13     30.03R WCI 41

$$

ORZ508-220310-
SOUTHERN FOOTHILLS OF THE BLUES

CITY            SKY/WX      TMP DP  RH  WIND    PRES   REMARKS
LEXINGTON       CLOUDY      48  41  77  S14     30.08R WCI 42
#AJAX           N/A         46  34  63  S8      30.01R
#CONDON SCHOOL  N/A         43  40  89  CALM    30.03R
#CONDON 5W      N/A         43  39  86  SW14    30.04R WCI 36
#FOSSIL SCHOOL  N/A         45  40  82  W7      30.06R
#HEPPNER EOC    N/A         47  40  76  W6      30.02R
#HEPPNER 4NE    N/A         43  38  82  SW3     30.06R
#LEXINGTON 2SE  N/A         50  41  71  SW7     30.02R
#MIKKALO        N/A         47  38  71  W12     30.07R WCI 42
#OLEX 4N        N/A         48  42  80  SW13    30.05R WCI 43
#RUGGS 5NE      N/A         43  39  86  SW8     30.20S
#RUGGS 2SW      N/A         44  38  79  W15     30.07S WCI 37

$$

ORZ502-503-220310-
BLUE MOUNTAINS

CITY            SKY/WX      TMP DP  RH  WIND    PRES   REMARKS
MEACHAM         CLOUDY      41  36  82  W6      30.03R
#BATTLE MTN DOT N/A         38  38  100 CALM    N/A
#HARDMAN 10S    N/A         37  35  92  CALM    30.21R
#HEPPNER 15SE   N/A         38  36  92  E3      29.96R
#LADD CYN SMT   N/A         41  32  70  NW5     N/A
#LADD CREEK ODOTN/A         40  38  92  CALM    N/A
#LONG CREEK HS  N/A         40  40  100 CALM    30.04R
#N POWDER DOT   N/A         40  37  89  SW7     N/A
#PIKES PEAK     N/A         40  38  92  SW25G35 27.99S WCI 29
#TOLLGATE       N/A         34  34  100 SW6     29.92S
#TROY SCHOOL    N/A         42  40  93  W1      29.89R
#UKIAH          N/A         40  37  89  CALM    30.11R
#WESTON 4E      N/A         41  37  86  SW7     30.01R
$$

ORZ505-220310-
JOHN DAY BASIN

CITY            SKY/WX      TMP DP  RH  WIND    PRES   REMARKS
JOHN DAY        LGT RAIN    41  39  93  SW3     30.10R
#JOHN DAY KJDY  N/A         44  44  100 CALM    30.13F
#DAYVILLE SCHOOLN/A         32  29  89  CALM    30.16S
#MONUMENT HS    N/A         45  40  82  CALM    30.09R
#MT. VERNON 5SE N/A         38  37  96  CALM    30.05R
#WINLOCK        N/A         42  40  93  CALM    30.16R
$$

ORZ506-220310-
OCHOCO AND JOHN DAY HIGHLANDS

CITY            SKY/WX      TMP DP  RH  WIND    PRES   REMARKS
#HORSE RIDGE DO N/A         45  40  82  W8      N/A
#KEYES SMT DOT  N/A         38  38  100 W7      N/A
#PINE MTN OBS   N/A         36  36  100 W8G25   N/A
#PRAIRIE CITY   N/A         37  35  92  W1      30.21R
#SENECA         N/A         35  N/A N/A CALM    N/A
#SENECA 9NW     N/A         34  33  96  CALM    30.11S
$$

ORZ049-220310-
GRANDE RONDE VALLEY

CITY            SKY/WX      TMP DP  RH  WIND    PRES   REMARKS
LA GRANDE       MOCLDY      43  34  70  S5      30.03R
#COVE           N/A         43  37  79  CALM    30.03S
#COVE SCHOOL    N/A         43  38  82  CALM    30.02S
#COVE 6NW       N/A         42  36  79  W2      30.12R
#ELGIN 3N       N/A         43  34  70  SW6     29.76R
#ELGIN 1E       N/A         45  37  73  NW7     N/A
#ISLAND CITY 4N N/A         50  49  96  CALM    30.13R
#LADD CYN DOT   N/A         43  35  73  S6      N/A
#UNION 1S       N/A         43  38  82  CALM    29.99R
$$

ORZ050-220310-
WALLOWA COUNTY

CITY            SKY/WX      TMP DP  RH  WIND    PRES   REMARKS
JOSEPH AIRPORT  MOCLDY      37  32  82  CALM    30.02R
#ENTERPRISE AP  N/A         41  29  62  NW7     29.96R
#ENTERPRISE HS  N/A         42  32  67  NW5     30.03R
#IMNAHA SCHOOL  N/A         44  39  82  CALM    30.03R
#IMNAHA 10S     N/A         40  36  85  N1      30.02F
#JOSEPH 3N      N/A         40  31  70  N5      30.03S
#JOSEPH 3W      N/A         34  28  78  SW1     29.85R
#LOSTINE        N/A         43  33  67  CALM    29.84R
#MT HOWARD 8000 N/A         23  21  92  W2      29.94R
#PROMISE 1S     N/A         39  35  85  E7      30.13R
#SHEEP RDG 7000 N/A         26  24  92  CALM    30.03S
#WALLOWA SCHOOL N/A         44  34  68  NW1     30.98S



$$



USA.gov is the U.S. government's official web portal to all federal, state and local government web resources and services.